Regional Weather Roundup
Issued by NWS Burlington, VT

Home | Current Version | Previous Version | Text Only | Print | Product List | Glossary On
Versions: 1 2 3 4 5 6 7 8 9 10 11 12 13 14 15 16 17 18 19 20 21 22 23 24 25 26 27 28 29 30 31 32 33 34 35 36 37 38 39 40 41 42 43 44 45 46 47 48 49 50
000
ASUS41 KBTV 271330
RWRBTV
VERMONT REGIONAL WEATHER ROUNDUP
NATIONAL WEATHER SERVICE BURLINGTON VT
900 AM EDT MON APR 27 2015

NOTE: "FAIR" INDICATES FEW OR NO CLOUDS BELOW 12,000 FEET WITH NO
SIGNIFICANT WEATHER AND/OR OBSTRUCTIONS TO VISIBILITY.

* THESE REPORTS ARE NOT UNDER NWS QUALITY CONTROL AND/OR DO NOT
  REPORT WEATHER SUCH AS PRECIPITATION AND FOG.

VTZ001>019-271400-
_____VERMONT_____


CITY           SKY/WX    TMP DP  RH WIND       PRES   REMARKS
BURLINGTON     CLOUDY    42  38  85 N9        29.71R
MONTPELIER     CLOUDY    41  37  86 NW9       29.69S
MORRISVILLE    CLOUDY    42  37  82 NW10      29.68F
ST. JOHNSBURY*   N/A     42  36  79 MISG      29.63F
LYNDONVILLE*   DRIZZLE   41  36  83 W9        29.66R
MIDDLEBURY*    DRIZZLE   42  42  99 N8        29.69S
RUTLAND*       CLOUDY   N/A N/A N/A NW13      29.67R
SPRINGFIELD    CLOUDY    47  33  58 N8        29.64S
HIGHGATE*      CLOUDY    41  40  95 NW6       29.71S
NEWPORT*       RAIN      39  38  95 N6        29.67R
BENNINGTON     CLOUDY    46  37  71 W9        29.67S
GALLUP MILLS*    N/A     39 N/A N/A MISG        N/A
MT. MANSFIELD*   N/A     32 N/A N/A CALM        N/A

_____LAKE CHAMPLAIN_____


CITY           SKY/WX    TMP DP  RH WIND       PRES   REMARKS
BURTON ISLAND*   N/A     41  39  93 NW7         N/A
COLCHESTER RF*   N/A     39  39 100 N3          N/A
DIAMOND ISL*     N/A     39  37  93 N15         N/A

$$

NYZ007-026>031-035-052-083-271400-
_____NORTHERN NEW YORK_____


CITY           SKY/WX    TMP DP  RH WIND       PRES   REMARKS
PLATTSBURGH    CLOUDY    44  38  79 NW10      29.71S
SARANAC LAKE   CLOUDY    37  34  89 NW3       29.69R
MASSENA        CLOUDY    43  37  79 NW7       29.78R
OGDENSBURG*    CLOUDY    45  37  76 N5        29.77S
POTSDAM*       CLOUDY    41  37  87 N7        29.76S
STARK FALLS*     N/A     37 N/A N/A NW2         N/A
WATERTOWN      CLOUDY    42  36  79 VRB5      29.78R
FT DRUM        CLOUDY    40  37  89 N8        29.75S
ALBANY         CLOUDY    49  34  56 NW10      29.70R
GLENS FALLS    CLOUDY    49  36  61 N10       29.68F

$$
NHZ002-005-011-271400-
_____NEW HAMPSHIRE_____


CITY           SKY/WX    TMP DP  RH WIND       PRES   REMARKS
LEBANON        CLOUDY    46  36  68 N8        29.64R
KEENE          CLOUDY    48  36  61 N10G17    29.63S
MT WASHINGTON  BLWGSNOW  21  21 100 N38         N/A  VSB 0   WCI   1
PLYMOUTH       CLOUDY    45  39  81 W10G20    29.61S
WHITEFIELD     CLOUDY    40  35  83 N3        29.63S

$$

_____REGIONAL QUEBEC LOCATIONS_____


CITY           SKY/WX    TMP DP  RH WIND       PRES   REMARKS
MONTREAL       CLOUDY    45  41  87 NW7       29.73S
QUEBEC CITY    LGT RAIN  45  39  81 E6        29.69R
SHERBROOKE     LGT RAIN  39 N/A N/A NW9       29.65S

_____REGIONAL ONTARIO LOCATIONS_____


CITY           SKY/WX    TMP DP  RH WIND       PRES   REMARKS
OTTAWA         PTSUNNY   45  39  81 NW8       29.77S

______KEY______
VSB  - VISIBILITY IN MILES
WCI  - WIND CHILL INDEX
HX   - HEAT INDEX
$$
NNNN


USA.gov is the U.S. government's official web portal to all federal, state and local government web resources and services.